Preview of NWS' New Version of Forecast
This preview is not operational and should not be used for support decisions.

Regional Weather Roundup (RWR)

Issued by National Weather Service (NWS)

                            
000
ASUS44 KMEG 211000
RWRTN 
TENNESSEE HOURLY STATE WEATHER ROUNDUP
NATIONAL WEATHER SERVICE MEMPHIS TN
500 AM CDT SUN JUL 21 2019

TNZ002-004-019-021-049-052-054-088>092-211100-
WEST TENNESSEE
  
CITY           SKY/WX    TMP DP  RH WIND       PRES   REMARKS
MEMPHIS INTL   FAIR      76  75  97 S6        29.97S                  
NWS MEMPHIS      N/A     76 N/A N/A MISG        N/A                   
JACKSON        MOCLDY    75  74  96 S6        29.98S                  
DYERSBURG      FAIR      75  74  96 SE3       29.96R                  
$$

TNZ008-025-027-028-033-062-065-066-211100-
NORTH MIDDLE TENNESSEE
  
CITY           SKY/WX    TMP DP  RH WIND       PRES   REMARKS
NASHVILLE      CLOUDY    73  70  90 S3        30.00F                  
CLARKSVILLE    FAIR      73  71  93 S6        29.97S                  
SMYRNA         CLOUDY    72  71  97 SE5       30.02S                  
CROSSVILLE     MOCLDY    70  68  93 CALM      30.09R                  
$$

TNZ061-075-076-078-094-096-097-211100-
SOUTH MIDDLE TENNESSEE
  
CITY           SKY/WX    TMP DP  RH WIND       PRES   REMARKS
$$

TNZ017-018-042-046-047-211100-
NORTHEAST TENNESSEE
  
CITY           SKY/WX    TMP DP  RH WIND       PRES   REMARKS
TRI CITIES     FAIR      70  69  97 CALM      30.06S FOG              
$$

TNZ012-013-036-069-073-074-211100-
CENTRAL EAST TENNESSEE
  
CITY           SKY/WX    TMP DP  RH WIND       PRES   REMARKS
KNOXVILLE      CLOUDY    73  71  93 SW6       30.03R                  
OAK RIDGE      CLOUDY    76  72  87 VRB3      30.05R                  
$$

TNZ083-085-099-211100-
SOUTHEAST TENNESSEE
  
CITY           SKY/WX    TMP DP  RH WIND       PRES   REMARKS
CHATTANOOGA    FAIR      74  73  97 SE3       30.03R                  
$$

SKY/WX REPORTED AS FAIR MEANS FEW OR NO CLOUDS BELOW
12 THOUSAND FEET.